EW2664 Weather Reports


Display with metric or nautical units.
time (UTC)temp
F
wind
direction
speed
MPH
gust
MPH
rain 1hr
in
rain 24hr
in
rain mn
in
humidity
%
barometer
mb
20260902220022 88 263 1.0 3.0 0.00 0.00 0.00 70 1013.2
20260902214524 88 171 0.0 2.0 0.00 0.00 0.00 72 1013.3
20260902213011 88 79 0.0 2.0 0.00 0.00 0.00 71 1013.3
20260902211517 87 89 0.0 2.0 0.00 0.00 0.00 73 1013.3
20260902210022 87 205 0.0 2.0 0.00 0.00 0.00 73 1013.3
20260902204507 87 76 1.0 2.0 0.00 0.00 0.00 73 1013.2
20260902203010 88 146 0.0 3.0 0.00 0.00 0.00 73 1013.3
20260902201517 88 184 0.0 2.0 0.00 0.00 0.00 72 1013.5
20260902200040 88 212 0.0 2.0 0.00 0.00 0.00 72 1013.7
20260902194508 88 141 0.0 2.0 0.00 0.00 0.00 70 1013.7
20260902193008 88 101 0.0 4.0 0.00 0.00 0.00 70 1013.8
20260902191512 88 72 1.0 3.0 0.00 0.00 0.00 70 1013.9
20260902190030 88 98 1.0 3.0 0.00 0.00 0.00 69 1014.2
20260902184531 90 60 1.0 9.0 0.00 0.00 0.00 65 1014.2
20260902183005 92 67 2.0 7.0 0.00 0.00 0.00 65 1014.0
20260902181511 90 59 0.0 2.0 0.00 0.00 0.00 60 1014.2
20260902180028 91 223 0.0 2.0 0.00 0.00 0.00 60 1014.3
20260902174527 92 272 0.0 3.0 0.00 0.00 0.00 59 1014.6
20260902173028 91 224 1.0 6.0 0.00 0.00 0.00 61 1014.9
20260902171507 90 269 1.0 4.0 0.00 0.00 0.00 67 1015.1
20260902170016 89 232 2.0 8.0 0.00 0.00 0.00 68 1015.3
20260902164521 90 302 3.0 9.0 0.00 0.00 0.00 67 1015.4
20260902163105 91 53 1.0 4.0 0.00 0.00 0.00 64 1015.6
20260902163101 89 133 0.0 2.0 0.00 0.00 0.00 70 1016.1
20260902151529 88 215 0.0 0.0 0.00 0.00 0.00 71 1016.2
20260902150014 87 235 0.0 0.0 0.00 0.00 0.00 73 1016.0
20260902144517 88 257 0.0 2.0 0.00 0.00 0.00 72 1015.9
20260902143023 88 56 0.0 2.0 0.00 0.00 0.00 72 1015.6
20260902141535 86 235 1.0 2.0 0.00 0.00 0.00 76 1015.8
20260902140030 86 92 1.0 2.0 0.00 0.00 0.00 78 1015.8
20260902134512 85 17 0.0 2.0 0.00 0.00 0.00 81 1015.6
20260902133021 83 51 1.0 2.0 0.00 0.00 0.00 81 1015.6
20260902131527 82 53 1.0 3.0 0.00 0.00 0.00 84 1015.8
20260902130007 81 46 0.0 2.0 0.00 0.00 0.00 88 1015.8
20260902124513 79 13 0.0 2.0 0.00 0.00 0.00 92 1015.5
20260902123017 78 13 0.0 2.0 0.00 0.00 0.00 92 1015.4
20260902121526 78 9 0.0 2.0 0.00 0.00 0.00 92 1015.4
20260902120005 78 15 1.0 2.0 0.00 0.00 0.00 92 1015.5
20260902114536 78 17 0.0 1.0 0.00 0.00 0.00 92 1015.5
20260902113018 78 5 0.0 2.0 0.00 0.00 0.00 92 1015.7
20260902111536 78 52 0.0 2.0 0.00 0.00 0.00 92 1015.4
20260902110036 78 52 0.0 2.0 0.00 0.00 0.00 92 1015.1
20260902104512 78 52 0.0 2.0 0.00 0.00 0.00 92 1014.8
20260902103015 78 52 0.0 0.0 0.00 0.00 0.00 91 1015.0
20260902101523 78 52 0.0 0.0 0.00 0.00 0.00 91 1014.9
20260902100031 78 52 0.0 0.0 0.00 0.00 0.00 91 1014.6
20260902094538 78 52 0.0 0.0 0.00 0.00 0.00 91 1014.5
20260902093016 78 52 0.0 0.0 0.00 0.00 0.00 91 1014.3
20260902091530 78 52 0.0 2.0 0.00 0.00 0.00 90 1014.3
20260902090027 78 52 0.0 0.0 0.00 0.00 0.00 90 1014.2
20260902084531 78 52 0.0 2.0 0.00 0.00 0.00 90 1014.2
20260902083014 78 52 0.0 1.0 0.00 0.00 0.00 89 1014.4
20260902081519 78 55 1.0 2.0 0.00 0.00 0.00 89 1014.2
20260902080024 78 74 0.0 2.0 0.00 0.00 0.00 89 1014.3
20260902074529 78 35 0.0 2.0 0.00 0.00 0.00 89 1014.1
20260902073034 78 88 0.0 2.0 0.00 0.00 0.00 88 1014.3
20260902071525 78 69 0.0 2.0 0.00 0.00 0.00 88 1014.4
20260902070026 78 71 0.0 2.0 0.00 0.00 0.00 88 1014.5
20260902064527 78 88 0.0 2.0 0.00 0.00 0.00 88 1014.5
20260902063031 78 88 0.0 0.0 0.00 0.00 0.00 88 1014.8
20260902061539 78 88 0.0 2.0 0.00 0.00 0.00 88 1014.9
20260902060020 79 88 0.0 1.0 0.00 0.00 0.00 88 1015.1
20260902054527 79 84 1.0 2.0 0.00 0.00 0.00 88 1014.9
20260902053037 79 109 1.0 2.0 0.00 0.00 0.00 88 1015.0
20260902051533 78 61 0.0 2.0 0.00 0.00 0.00 88 1015.2
20260902050020 79 90 0.0 0.0 0.00 0.00 0.00 88 1015.3
20260902044524 79 90 0.0 1.0 0.00 0.00 0.00 88 1015.2
20260902043029 79 90 0.0 2.0 0.00 0.00 0.00 87 1015.3
20260902041531 79 46 0.0 2.0 0.00 0.00 0.00 87 1015.4
20260902040035 79 76 0.0 2.0 0.00 0.00 0.00 87 1015.7
20260902034524 79 56 0.0 3.0 0.00 0.00 0.00 87 1015.8
20260902033038 79 102 0.0 2.0 0.00 0.00 0.00 87 1015.8
20260902031533 79 5 0.0 4.0 0.00 0.00 0.00 86 1015.9
20260902030034 79 30 0.0 3.0 0.00 0.00 0.00 86 1015.8
20260902024532 79 11 0.0 4.0 0.00 0.00 0.00 85 1015.8
20260902023027 79 5 1.0 5.0 0.00 0.00 0.00 83 1015.7
20260902021536 79 352 1.0 3.0 0.00 0.00 0.00 83 1015.7
20260902020014 79 351 0.0 2.0 0.00 0.00 0.00 82 1015.8
20260902014531 79 360 0.0 2.0 0.00 0.00 0.00 83 1015.4
20260902013025 79 333 0.0 2.0 0.00 0.00 0.00 83 1015.4
20260902011535 80 273 0.0 2.0 0.00 0.00 0.00 83 1015.3
20260902010047 80 262 0.0 2.0 0.00 0.00 0.00 82 1015.1
20260902004514 80 252 0.0 1.0 0.00 0.00 0.00 82 1015.3
20260902003018 80 246 0.0 2.0 0.00 0.00 0.00 82 1015.0
20260902001525 80 219 0.0 2.0 0.00 0.00 0.00 82 1015.1
20260902000046 81 264 0.0 2.0 0.00 0.00 0.00 82 1015.3
20260901234559 81 246 0.0 2.0 0.00 0.00 0.00 82 1015.4
20260901233017 81 291 1.0 3.0 0.00 0.00 0.00 81 1015.4
20260901231538 82 251 2.0 6.0 0.00 0.00 0.00 80 1015.2
20260901230028 83 262 1.0 5.0 0.00 0.00 0.00 80 1015.0
20260901224533 85 248 1.0 4.0 0.00 0.00 0.00 75 1014.6
20260901223029 87 105 0.0 3.0 0.00 0.00 0.00 70 1014.5
20260901221528 87 86 0.0 7.0 0.00 0.00 0.00 70 1014.8